Walhalla, ND

11:36 PM CDT on March 22, 2017 (GMT -0500)
Walhalla

Weather History for K96D - April, 2014

Change the Weather History Date:

Thursday, April 24, 2014

  Actual Average (KGAF) Record (KGAF)
Temperature  
Mean Temperature 39 °F -  
Max Temperature 41 °F 60 °F 88 °F (1990)
Min Temperature 35 °F 35 °F 21 °F (1967)
Degree Days  
Heating Degree Days 26    
Moisture  
Dew Point 39 °F    
Average Humidity 100    
Maximum Humidity 100    
Minimum Humidity 100    
Precipitation  
Precipitation 0.00 in - - ()
Sea Level Pressure  
Sea Level Pressure 29.75 in    
Wind  
Wind Speed 11 mph (ESE)    
Max Wind Speed 18 mph    
Max Gust Speed 28 mph    
Visibility 4 miles    
Events Fog    
Averages and records for this station are not official NWS values.
T = Trace of Precipitation, MM = Missing Value Source: NWS Daily Summary

Daily Weather History Graph

Daily Weather History Graph

Search for Another Location

Airport or City:

Trip Planner

Search our weather history database for the weather conditions in past years. The results will help you decide how hot, cold, wet, or windy it might be!

Date:

Astronomy

Apr. 24, 2014 Rise Set
Actual Time 6:23 AM CDT 8:37 PM CDT
Civil Twilight 5:48 AM CDT 9:11 PM CDT
Nautical Twilight 5:05 AM CDT 9:55 PM CDT
Astronomical Twilight 4:17 AM CDT 10:44 PM CDT
Moon 4:01 AM CDT (4/24) 3:30 PM CDT (4/24)
Length of Visible Light 15h 22m
Length of Day
14h 13m
Waning Crescent, 24% of the Moon is Illuminated
Apr 24
Waning Crescent
Apr 29
New
May 6
First Quarter
May 14
Full
May 21
Last Quarter

Hourly Weather History & Observations

Time (CDT) Temp. Windchill Dew Point Humidity Pressure Visibility Wind Dir Wind Speed Gust Speed Precip Events Conditions
12:15 AM 37.4 °F 27.8 °F 37.4 °F 100% 29.82 in 10.0 mi SE 17.3 mph 26.5 mph N/A   Overcast
12:35 AM 37.4 °F 28.2 °F 37.4 °F 100% 29.81 in 10.0 mi SE 16.1 mph 26.5 mph N/A   Overcast
12:55 AM 37.4 °F 27.5 °F 37.4 °F 100% 29.82 in 10.0 mi SE 18.4 mph 25.3 mph N/A   Overcast
1:15 AM 37.4 °F 27.5 °F 37.4 °F 100% 29.82 in 10.0 mi SE 18.4 mph 27.6 mph N/A   Overcast
1:35 AM 37.4 °F 28.2 °F 37.4 °F 100% 29.81 in 3.0 mi SE 16.1 mph 23.0 mph N/A   Overcast
1:55 AM 37.4 °F 28.5 °F 37.4 °F 100% 29.81 in 3.0 mi SE 15.0 mph 19.6 mph N/A   Overcast
2:15 AM 37.4 °F 28.5 °F 37.4 °F 100% 29.81 in 3.0 mi SE 15.0 mph 18.4 mph N/A   Mostly Cloudy
2:35 AM 37.4 °F 28.2 °F 37.4 °F 100% 29.80 in 7.0 mi SE 16.1 mph - N/A   Mostly Cloudy
2:55 AM 37.4 °F 29.3 °F 37.4 °F 100% 29.78 in 10.0 mi SE 12.7 mph 20.7 mph N/A   Overcast
3:15 AM 37.4 °F 29.3 °F 37.4 °F 100% 29.78 in 9.0 mi SE 12.7 mph 18.4 mph N/A   Overcast
3:35 AM 37.4 °F 28.5 °F 37.4 °F 100% 29.77 in 8.0 mi SE 15.0 mph 19.6 mph N/A   Overcast
3:55 AM 37.4 °F 28.5 °F 37.4 °F 100% 29.77 in 7.0 mi SE 15.0 mph 21.9 mph N/A   Overcast
4:15 AM 37.4 °F 29.3 °F 37.4 °F 100% 29.78 in 3.0 mi SE 12.7 mph 18.4 mph N/A   Overcast
4:35 AM 37.4 °F 28.9 °F 37.4 °F 100% 29.78 in 3.0 mi SE 13.8 mph - N/A   Overcast
4:55 AM 37.4 °F 29.8 °F 37.4 °F 100% 29.78 in 2.0 mi SE 11.5 mph 18.4 mph N/A   Overcast
5:15 AM 37.4 °F 29.3 °F 37.4 °F 100% 29.77 in 3.0 mi SE 12.7 mph - N/A   Overcast
5:35 AM 37.4 °F 30.3 °F 37.4 °F 100% 29.77 in 4.0 mi SE 10.4 mph - N/A   Overcast
5:55 AM 37.4 °F 29.8 °F 37.4 °F 100% 29.77 in 3.0 mi SSE 11.5 mph - N/A   Overcast
6:15 AM 37.4 °F 30.3 °F 37.4 °F 100% 29.77 in 2.5 mi SE 10.4 mph - N/A   Overcast
6:35 AM 37.4 °F 30.3 °F 37.4 °F 100% 29.76 in 3.0 mi SE 10.4 mph - N/A   Overcast
6:55 AM 37.4 °F 30.3 °F 37.4 °F 100% 29.77 in 2.0 mi SE 10.4 mph - N/A   Overcast
7:15 AM 37.4 °F 29.8 °F 37.4 °F 100% 29.77 in 2.5 mi SSE 11.5 mph - N/A   Overcast
7:35 AM 37.4 °F 30.8 °F 37.4 °F 100% 29.76 in 2.5 mi SSE 9.2 mph - N/A   Overcast
7:55 AM 37.4 °F 29.8 °F 37.4 °F 100% 29.77 in 2.5 mi SSE 11.5 mph - N/A   Overcast
8:15 AM 37.4 °F 30.3 °F 37.4 °F 100% 29.76 in 2.0 mi SSE 10.4 mph - N/A   Overcast
8:35 AM 37.4 °F 30.3 °F 37.4 °F 100% 29.76 in 2.0 mi SSE 10.4 mph - N/A   Overcast
8:55 AM 37.4 °F 29.8 °F 37.4 °F 100% 29.76 in 2.0 mi SSE 11.5 mph - N/A   Overcast
9:15 AM 37.4 °F 30.8 °F 37.4 °F 100% 29.76 in 2.5 mi SSE 9.2 mph - N/A   Overcast
9:35 AM 39.2 °F 32.5 °F 39.2 °F 100% 29.75 in 2.5 mi SSE 10.4 mph - N/A   Overcast
9:55 AM 39.2 °F 32.5 °F 39.2 °F 100% 29.75 in 2.5 mi SSE 10.4 mph - N/A   Mist
10:15 AM 39.2 °F 32.5 °F 39.2 °F 100% 29.74 in 2.5 mi SE 10.4 mph - N/A   Mist
10:35 AM 39.2 °F 32.5 °F 39.2 °F 100% 29.73 in 3.0 mi SSE 10.4 mph - N/A   Mist
10:55 AM 39.2 °F 32.5 °F 39.2 °F 100% 29.74 in 4.0 mi SE 10.4 mph - N/A   Mist
11:15 AM 39.2 °F 32.5 °F 39.2 °F 100% 29.74 in 5.0 mi SSE 10.4 mph - N/A   Mist
11:35 AM 39.2 °F 32.5 °F 39.2 °F 100% 29.75 in 2.0 mi SSE 10.4 mph - N/A   Mist
11:55 AM 39.2 °F 33.6 °F 39.2 °F 100% 29.75 in 2.5 mi SE 8.1 mph - N/A   Mist
12:15 PM 39.2 °F 33.6 °F 39.2 °F 100% 29.75 in 3.0 mi SSE 8.1 mph - N/A   Mist
12:35 PM 39.2 °F 33.0 °F 39.2 °F 100% 29.74 in 3.0 mi SSE 9.2 mph - N/A   Mist
12:55 PM 41.0 °F 36.4 °F 41.0 °F 100% 29.73 in 4.0 mi SSE 6.9 mph - N/A   Mist
1:15 PM 41.0 °F 37.1 °F 41.0 °F 100% 29.73 in 5.0 mi SSW 5.8 mph - N/A   Mist
1:35 PM 41.0 °F 36.4 °F 41.0 °F 100% 29.73 in 3.0 mi SSE 6.9 mph - N/A   Mist
1:55 PM 41.0 °F 38.0 °F 41.0 °F 100% 29.72 in 4.0 mi SSE 4.6 mph - N/A   Mist
2:15 PM 41.0 °F 39.0 °F 41.0 °F 100% 29.71 in 5.0 mi SSE 3.5 mph - N/A   Mist
2:35 PM 41.0 °F - 41.0 °F 100% 29.71 in 5.0 mi Calm Calm - N/A   Mist
2:55 PM 41.0 °F - 41.0 °F 100% 29.71 in 5.0 mi Calm Calm - N/A   Mist
3:15 PM 41.0 °F 38.0 °F 41.0 °F 100% 29.70 in 6.0 mi ESE 4.6 mph - N/A   Mist
3:35 PM 41.0 °F 37.1 °F 41.0 °F 100% 29.71 in 5.0 mi East 5.8 mph - N/A   Mist
3:55 PM 41.0 °F 36.4 °F 41.0 °F 100% 29.71 in 5.0 mi East 6.9 mph - N/A   Mist
4:15 PM 41.0 °F 37.1 °F 41.0 °F 100% 29.71 in 5.0 mi East 5.8 mph - N/A   Mist
4:35 PM 41.0 °F 37.1 °F 41.0 °F 100% 29.72 in 5.0 mi ENE 5.8 mph - N/A   Mist
4:55 PM 41.0 °F 38.0 °F 41.0 °F 100% 29.72 in 5.0 mi ENE 4.6 mph - N/A   Mist
5:15 PM 41.0 °F 39.0 °F 41.0 °F 100% 29.72 in 5.0 mi NE 3.5 mph - N/A   Mist
5:35 PM 41.0 °F 39.0 °F 41.0 °F 100% 29.73 in 5.0 mi ENE 3.5 mph - N/A   Mist
5:55 PM 41.0 °F 39.0 °F 41.0 °F 100% 29.73 in 5.0 mi NE 3.5 mph - N/A   Mist
6:15 PM 41.0 °F 39.0 °F 41.0 °F 100% 29.73 in 5.0 mi NE 3.5 mph - N/A   Mist
6:35 PM 41.0 °F 39.0 °F 41.0 °F 100% 29.73 in 5.0 mi ENE 3.5 mph - N/A   Overcast
6:55 PM 41.0 °F 38.0 °F 41.0 °F 100% 29.72 in 5.0 mi East 4.6 mph - N/A   Overcast
7:15 PM 41.0 °F 37.1 °F 41.0 °F 100% 29.73 in 3.0 mi ESE 5.8 mph - N/A   Overcast
7:35 PM 41.0 °F 35.2 °F 41.0 °F 100% 29.72 in 1.8 mi East 9.2 mph - N/A   Overcast
7:55 PM 39.2 °F 33.0 °F 39.2 °F 100% 29.72 in 1.0 mi East 9.2 mph - N/A   Overcast
8:15 PM 39.2 °F 34.2 °F 39.2 °F 100% 29.72 in 0.8 mi East 6.9 mph - N/A   Overcast
8:35 PM 39.2 °F 33.0 °F 39.2 °F 100% 29.72 in 0.8 mi East 9.2 mph - N/A   Overcast
8:55 PM 39.2 °F 34.2 °F 39.2 °F 100% 29.73 in 1.5 mi ESE 6.9 mph - N/A   Overcast
9:15 PM 37.4 °F 32.1 °F 37.4 °F 100% 29.73 in 1.8 mi ESE 6.9 mph - N/A   Overcast
9:35 PM 37.4 °F 33.8 °F 37.4 °F 100% 29.73 in 1.8 mi ESE 4.6 mph - N/A   Overcast
9:55 PM 37.4 °F 34.9 °F 37.4 °F 100% 29.74 in 1.5 mi SE 3.5 mph - N/A   Overcast
10:35 PM 37.4 °F 33.8 °F 37.4 °F 100% 29.74 in 0.8 mi ENE 4.6 mph - N/A   Overcast
10:55 PM 37.4 °F 33.8 °F 37.4 °F 100% 29.74 in 0.5 mi East 4.6 mph - N/A Fog Fog
11:15 PM 37.4 °F 33.8 °F 37.4 °F 100% 29.74 in 0.5 mi ENE 4.6 mph - N/A Fog Fog
11:35 PM 37.4 °F 32.1 °F 37.4 °F 100% 29.74 in 0.5 mi ENE 6.9 mph - N/A Fog Fog
11:55 PM 35.6 °F 29.9 °F 35.6 °F 100% 29.73 in 0.8 mi ENE 6.9 mph - N/A   Overcast